Weather in Bora-Tayga

Russia / Tyva Republic     51°24′15″N   91°08′47″E
temp.,
°C
wind,
m/s
gust,
m/s
humid.,
%
clouds,
%
prec.,
mm/h
press.,
hPa
HPBL,
m
5 march, fri
fri501:00−16nnw118959 0.0 103020
04:00−18n119595 0.0 102920
07:00−20nw119986 0.1 102920
10:00−14ese1192100 0.0 1027104
13:00−12se2191100 0.0 1024249
16:00−11s2193100 0.3 1023217
19:00−12sse1296100 0.6 102744
22:00−15nnw128543 0.0 103121
6 march, sat
sat601:00−16nnw118225 0.0 103320
04:00−17nnw11794 0.0 103320
07:00−18nnw118039 0.0 103420
10:00−13se1185100 0.0 103252
13:00−10se218799 0.0 1028196
16:00−8se219184 0.0 1024170
19:00−14n119171 0.0 102621
22:00−16nnw117469 0.0 102620
7 march, sun
sun701:00−17nnw117240 0.0 102620
04:00−18nnw116910 0.0 102520
07:00−18nnw116716 0.0 102620
10:00−13se117750 0.0 102546
13:00−9se218555 0.0 1023162
16:00−7se219078 0.0 1023139
19:00−12n019189 0.0 102621
22:00−14nnw117827 0.0 102821
8 march, mon
mon801:00−15nnw117334 0.0 102921
04:00−16nnw117275 0.0 102821
07:00−17n117153 0.0 103020
10:00−12ese117821 0.0 102785
13:00−9se218812 0.0 1024202
16:00−7ese219050 0.0 1021190
19:00−13n119532 0.0 102221
22:00−13nnw118199 0.0 102321
9 march, tue
tue901:00−13sw018499 0.0 102420
04:00−13wnw1175100 0.0 102521
07:00−14n117698 0.0 102721
10:00−9se118277 0.0 102770
13:00−6ese218339 0.0 1026206
16:00−5ese22878 0.0 1026197
19:00−10nne129417 0.0 102721
22:00−11n118410 0.0 102821